Time,TemperatureF,DewpointF,PressureIn,WindDirection,WindDirectionDegrees,WindSpeedMPH,WindSpeedGustMPH,Humidity,HourlyPrecipIn,Conditions,Clouds,dailyrainin,SoftwareType,DateUTC
2013-02-11 00:00:00,23.2,17.4,30.29,NNW,338,0.0,-999.0,78,0.00,,,0.51,Wunderground v.1.15,2013-02-11 05:00:00,
2013-02-11 00:05:00,23.2,17.4,30.29,NNW,338,0.0,-999.0,78,0.00,,,0.51,Wunderground v.1.15,2013-02-11 05:05:00,
2013-02-11 00:10:00,23.3,17.5,30.29,N/A,-737280,0.0,-999.0,78,0.00,,,0.51,Wunderground v.1.15,2013-02-11 05:10:00,
2013-02-11 00:15:00,23.2,17.4,30.28,NNW,338,0.0,-999.0,78,0.00,,,0.51,Wunderground v.1.15,2013-02-11 05:15:00,
2013-02-11 00:20:00,23.0,17.5,30.28,NNW,338,0.0,-999.0,79,0.00,,,0.51,Wunderground v.1.15,2013-02-11 05:20:00,
2013-02-11 00:25:00,23.1,17.8,30.28,N/A,-737280,0.0,-999.0,80,0.00,,,0.51,Wunderground v.1.15,2013-02-11 05:25:00,
2013-02-11 00:30:00,22.8,17.3,30.28,NNW,338,0.0,-999.0,79,0.00,,,0.51,Wunderground v.1.15,2013-02-11 05:30:00,
2013-02-11 00:35:00,22.5,17.3,30.29,NNW,338,0.0,-999.0,80,0.00,,,0.51,Wunderground v.1.15,2013-02-11 05:35:00,
2013-02-11 00:40:00,21.9,16.7,30.28,NNW,338,1.0,-999.0,80,0.00,,,0.51,Wunderground v.1.15,2013-02-11 05:40:00,
2013-02-11 00:45:00,21.3,16.1,30.28,NNW,338,0.0,-999.0,80,0.00,,,0.51,Wunderground v.1.15,2013-02-11 05:45:00,
2013-02-11 00:50:00,21.0,16.4,30.28,NNW,338,1.0,-999.0,82,0.00,,,0.51,Wunderground v.1.15,2013-02-11 05:50:00,
2013-02-11 00:55:00,21.0,16.6,30.28,NNW,338,1.0,-999.0,83,0.00,,,0.51,Wunderground v.1.15,2013-02-11 05:55:00,
2013-02-11 01:00:00,20.9,16.8,30.28,NNW,338,1.0,-999.0,84,0.00,,,0.51,Wunderground v.1.15,2013-02-11 06:00:00,
2013-02-11 01:05:00,20.8,16.7,30.27,NNW,338,1.0,-999.0,84,0.00,,,0.51,Wunderground v.1.15,2013-02-11 06:05:00,
2013-02-11 01:10:00,20.7,16.6,30.27,NNW,338,2.0,-999.0,84,0.00,,,0.51,Wunderground v.1.15,2013-02-11 06:10:00,
2013-02-11 01:15:00,20.6,16.5,30.27,NNW,338,1.0,-999.0,84,0.00,,,0.51,Wunderground v.1.15,2013-02-11 06:15:00,
2013-02-11 01:20:00,20.6,16.5,30.27,NNW,338,2.0,-999.0,84,0.00,,,0.51,Wunderground v.1.15,2013-02-11 06:20:00,
2013-02-11 01:25:00,20.6,16.5,30.26,NNW,338,1.0,-999.0,84,0.00,,,0.51,Wunderground v.1.15,2013-02-11 06:25:00,
2013-02-11 01:30:00,20.5,16.2,30.26,NNW,338,0.0,-999.0,83,0.00,,,0.51,Wunderground v.1.15,2013-02-11 06:30:00,
2013-02-11 01:35:00,20.6,16.0,30.26,N/A,-737280,0.0,-999.0,82,0.00,,,0.51,Wunderground v.1.15,2013-02-11 06:35:00,
2013-02-11 01:40:00,20.7,15.8,30.26,N/A,-737280,0.0,-999.0,81,0.00,,,0.51,Wunderground v.1.15,2013-02-11 06:40:00,
2013-02-11 01:45:00,20.6,15.4,30.26,NNW,338,0.0,-999.0,80,0.00,,,0.51,Wunderground v.1.15,2013-02-11 06:45:00,
2013-02-11 01:50:00,20.6,15.1,30.26,NNW,338,0.0,-999.0,79,0.00,,,0.51,Wunderground v.1.15,2013-02-11 06:50:00,
2013-02-11 01:55:00,20.6,14.5,30.26,N/A,-737280,0.0,-999.0,77,0.00,,,0.51,Wunderground v.1.15,2013-02-11 06:55:00,
2013-02-11 02:00:00,20.6,13.9,30.26,N/A,-737280,0.0,-999.0,75,0.00,,,0.51,Wunderground v.1.15,2013-02-11 07:00:00,
2013-02-11 02:05:00,20.5,13.5,30.25,N/A,-737280,0.0,-999.0,74,0.00,,,0.51,Wunderground v.1.15,2013-02-11 07:05:00,
2013-02-11 02:10:00,20.4,13.4,30.25,N/A,-737280,0.0,-999.0,74,0.00,,,0.51,Wunderground v.1.15,2013-02-11 07:10:00,
2013-02-11 02:15:00,20.2,12.9,30.25,NNW,338,0.0,-999.0,73,0.00,,,0.51,Wunderground v.1.15,2013-02-11 07:15:00,
2013-02-11 02:20:00,19.8,12.2,30.25,NNW,338,1.0,-999.0,72,0.00,,,0.51,Wunderground v.1.15,2013-02-11 07:20:00,
2013-02-11 02:25:00,19.7,12.1,30.24,NNW,338,0.0,-999.0,72,0.00,,,0.51,Wunderground v.1.15,2013-02-11 07:25:00,
2013-02-11 02:30:00,19.7,11.8,30.24,N/A,-737280,0.0,-999.0,71,0.00,,,0.51,Wunderground v.1.15,2013-02-11 07:30:00,
2013-02-11 02:35:00,19.7,11.5,30.24,N/A,-737280,0.0,-999.0,70,0.00,,,0.51,Wunderground v.1.15,2013-02-11 07:35:00,
2013-02-11 02:40:00,19.7,11.5,30.24,N/A,-737280,0.0,-999.0,70,0.00,,,0.51,Wunderground v.1.15,2013-02-11 07:40:00,
2013-02-11 02:45:00,19.8,11.6,30.24,N/A,-737280,0.0,-999.0,70,0.00,,,0.51,Wunderground v.1.15,2013-02-11 07:45:00,
2013-02-11 02:50:00,19.9,11.7,30.24,N/A,-737280,0.0,-999.0,70,0.00,,,0.51,Wunderground v.1.15,2013-02-11 07:50:00,
2013-02-11 02:55:00,20.0,11.8,30.24,N/A,-737280,0.0,-999.0,70,0.00,,,0.51,Wunderground v.1.15,2013-02-11 07:55:00,
2013-02-11 03:00:00,20.0,12.1,30.24,N/A,-737280,0.0,-999.0,71,0.00,,,0.51,Wunderground v.1.15,2013-02-11 08:00:00,
2013-02-11 03:05:00,20.0,12.4,30.24,N/A,-737280,0.0,-999.0,72,0.00,,,0.51,Wunderground v.1.15,2013-02-11 08:05:00,
2013-02-11 03:10:00,19.7,12.1,30.23,NNW,338,1.0,-999.0,72,0.00,,,0.51,Wunderground v.1.15,2013-02-11 08:10:00,
2013-02-11 03:15:00,19.3,12.1,30.24,NNW,338,1.0,-999.0,73,0.00,,,0.51,Wunderground v.1.15,2013-02-11 08:15:00,
2013-02-11 03:20:00,19.1,12.2,30.23,NNW,338,0.0,-999.0,74,0.00,,,0.51,Wunderground v.1.15,2013-02-11 08:20:00,
2013-02-11 03:25:00,19.1,12.5,30.23,NNW,338,0.0,-999.0,75,0.00,,,0.51,Wunderground v.1.15,2013-02-11 08:25:00,
2013-02-11 03:30:00,19.0,12.4,30.23,NNW,338,0.0,-999.0,75,0.00,,,0.51,Wunderground v.1.15,2013-02-11 08:30:00,
2013-02-11 03:35:00,18.7,12.1,30.23,NNW,338,1.0,-999.0,75,0.00,,,0.51,Wunderground v.1.15,2013-02-11 08:35:00,
2013-02-11 03:40:00,18.5,12.5,30.23,NNW,338,2.0,-999.0,77,0.00,,,0.51,Wunderground v.1.15,2013-02-11 08:40:00,
2013-02-11 03:45:00,18.5,12.5,30.22,NNW,338,2.0,-999.0,77,0.00,,,0.51,Wunderground v.1.15,2013-02-11 08:45:00,
2013-02-11 03:50:00,18.3,12.3,30.21,NNW,338,2.0,-999.0,77,0.00,,,0.51,Wunderground v.1.15,2013-02-11 08:50:00,
2013-02-11 03:55:00,18.3,12.6,30.21,NNW,338,2.0,-999.0,78,0.00,,,0.51,Wunderground v.1.15,2013-02-11 08:55:00,
2013-02-11 04:00:00,18.3,12.6,30.21,NNW,338,1.0,-999.0,78,0.00,,,0.51,Wunderground v.1.15,2013-02-11 09:00:00,
2013-02-11 04:05:00,18.2,12.5,30.21,NNW,338,0.0,-999.0,78,0.00,,,0.51,Wunderground v.1.15,2013-02-11 09:05:00,
2013-02-11 04:10:00,18.2,12.5,30.21,NNW,338,1.0,-999.0,78,0.00,,,0.51,Wunderground v.1.15,2013-02-11 09:10:00,
2013-02-11 04:15:00,18.1,12.4,30.20,NNW,338,1.0,-999.0,78,0.00,,,0.51,Wunderground v.1.15,2013-02-11 09:15:00,
2013-02-11 04:20:00,18.0,12.3,30.20,NNW,338,0.0,-999.0,78,0.00,,,0.51,Wunderground v.1.15,2013-02-11 09:20:00,
2013-02-11 04:25:00,17.9,11.9,30.20,N/A,-737280,0.0,-999.0,77,0.00,,,0.51,Wunderground v.1.15,2013-02-11 09:25:00,
2013-02-11 04:30:00,18.0,12.0,30.20,NNW,338,0.0,-999.0,77,0.00,,,0.51,Wunderground v.1.15,2013-02-11 09:30:00,
2013-02-11 04:35:00,17.9,11.6,30.20,NNW,338,0.0,-999.0,76,0.00,,,0.51,Wunderground v.1.15,2013-02-11 09:35:00,
2013-02-11 04:40:00,17.9,11.6,30.20,N/A,-737280,0.0,-999.0,76,0.00,,,0.51,Wunderground v.1.15,2013-02-11 09:40:00,
2013-02-11 04:45:00,18.0,11.4,30.20,N/A,-737280,0.0,-999.0,75,0.00,,,0.51,Wunderground v.1.15,2013-02-11 09:45:00,
2013-02-11 04:50:00,17.9,11.3,30.20,N/A,-737280,0.0,-999.0,75,0.00,,,0.51,Wunderground v.1.15,2013-02-11 09:50:00,
2013-02-11 04:55:00,18.0,11.4,30.20,N/A,-737280,0.0,-999.0,75,0.00,,,0.51,Wunderground v.1.15,2013-02-11 09:55:00,
2013-02-11 05:00:00,18.2,11.6,30.20,NNW,338,0.0,-999.0,75,0.00,,,0.51,Wunderground v.1.15,2013-02-11 10:00:00,
2013-02-11 05:05:00,18.1,11.2,30.20,NNW,338,1.0,-999.0,74,0.00,,,0.51,Wunderground v.1.15,2013-02-11 10:05:00,
2013-02-11 05:10:00,18.0,10.8,30.20,NNW,338,0.0,-999.0,73,0.00,,,0.51,Wunderground v.1.15,2013-02-11 10:10:00,
2013-02-11 05:15:00,17.9,10.7,30.20,N/A,-737280,0.0,-999.0,73,0.00,,,0.51,Wunderground v.1.15,2013-02-11 10:15:00,
2013-02-11 05:20:00,17.9,10.7,30.19,N/A,-737280,0.0,-999.0,73,0.00,,,0.51,Wunderground v.1.15,2013-02-11 10:20:00,
2013-02-11 05:25:00,17.9,10.7,30.19,NNW,338,0.0,-999.0,73,0.00,,,0.51,Wunderground v.1.15,2013-02-11 10:25:00,
2013-02-11 05:30:00,17.9,10.4,30.18,N/A,-737280,0.0,-999.0,72,0.00,,,0.51,Wunderground v.1.15,2013-02-11 10:30:00,
2013-02-11 05:35:00,18.1,10.3,30.18,N/A,-737280,0.0,-999.0,71,0.00,,,0.51,Wunderground v.1.15,2013-02-11 10:35:00,
2013-02-11 05:40:00,18.2,10.7,30.18,NNW,338,0.0,-999.0,72,0.00,,,0.51,Wunderground v.1.15,2013-02-11 10:40:00,
2013-02-11 05:45:00,18.3,11.1,30.18,NNW,338,0.0,-999.0,73,0.00,,,0.51,Wunderground v.1.15,2013-02-11 10:45:00,
2013-02-11 05:50:00,18.3,10.8,30.18,N/A,-737280,0.0,-999.0,72,0.00,,,0.51,Wunderground v.1.15,2013-02-11 10:50:00,
2013-02-11 05:55:00,18.4,10.6,30.17,N/A,-737280,0.0,-999.0,71,0.00,,,0.51,Wunderground v.1.15,2013-02-11 10:55:00,
2013-02-11 06:00:00,18.6,10.8,30.18,N/A,-737280,0.0,-999.0,71,0.00,,,0.51,Wunderground v.1.15,2013-02-11 11:00:00,
2013-02-11 06:05:00,18.7,11.2,30.17,N/A,-737280,0.0,-999.0,72,0.00,,,0.51,Wunderground v.1.15,2013-02-11 11:05:00,
2013-02-11 06:10:00,18.8,11.6,30.18,N/A,-737280,0.0,-999.0,73,0.00,,,0.51,Wunderground v.1.15,2013-02-11 11:10:00,
2013-02-11 06:15:00,18.8,11.9,30.18,N/A,-737280,0.0,-999.0,74,0.00,,,0.51,Wunderground v.1.15,2013-02-11 11:15:00,
2013-02-11 06:20:00,18.7,11.8,30.18,N/A,-737280,0.0,-999.0,74,0.00,,,0.51,Wunderground v.1.15,2013-02-11 11:20:00,
2013-02-11 06:25:00,18.8,11.9,30.18,N/A,-737280,0.0,-999.0,74,0.00,,,0.51,Wunderground v.1.15,2013-02-11 11:25:00,
2013-02-11 06:30:00,18.8,11.6,30.18,N/A,-737280,0.0,-999.0,73,0.00,,,0.51,Wunderground v.1.15,2013-02-11 11:30:00,
2013-02-11 06:35:00,18.9,11.4,30.17,N/A,-737280,0.0,-999.0,72,0.00,,,0.51,Wunderground v.1.15,2013-02-11 11:35:00,
2013-02-11 06:40:00,18.9,11.4,30.18,N/A,-737280,0.0,-999.0,72,0.00,,,0.51,Wunderground v.1.15,2013-02-11 11:40:00,
2013-02-11 06:45:00,19.0,11.8,30.17,N/A,-737280,0.0,-999.0,73,0.00,,,0.51,Wunderground v.1.15,2013-02-11 11:45:00,
2013-02-11 06:50:00,19.0,12.1,30.17,NNW,338,0.0,-999.0,74,0.00,,,0.51,Wunderground v.1.15,2013-02-11 11:50:00,
2013-02-11 06:55:00,19.0,12.4,30.17,N/A,-737280,0.0,-999.0,75,0.00,,,0.51,Wunderground v.1.15,2013-02-11 11:55:00,
2013-02-11 07:00:00,19.0,12.4,30.17,N/A,-737280,0.0,-999.0,75,0.00,,,0.51,Wunderground v.1.15,2013-02-11 12:00:00,
2013-02-11 07:05:00,19.1,12.5,30.16,N/A,-737280,0.0,-999.0,75,0.00,,,0.51,Wunderground v.1.15,2013-02-11 12:05:00,
2013-02-11 07:10:00,19.1,12.8,30.17,N/A,-737280,0.0,-999.0,76,0.00,,,0.51,Wunderground v.1.15,2013-02-11 12:10:00,
2013-02-11 07:15:00,19.2,12.9,30.16,N/A,-737280,0.0,-999.0,76,0.00,,,0.51,Wunderground v.1.15,2013-02-11 12:15:00,
2013-02-11 07:20:00,19.3,13.0,30.16,N/A,-737280,0.0,-999.0,76,0.00,,,0.51,Wunderground v.1.15,2013-02-11 12:20:00,
2013-02-11 07:25:00,19.4,13.4,30.16,N/A,-737280,0.0,-999.0,77,0.00,,,0.51,Wunderground v.1.15,2013-02-11 12:25:00,
2013-02-11 07:30:00,19.5,13.2,30.16,N/A,-737280,0.0,-999.0,76,0.00,,,0.51,Wunderground v.1.15,2013-02-11 12:30:00,
2013-02-11 07:35:00,19.7,13.7,30.15,N/A,-737280,0.0,-999.0,77,0.00,,,0.51,Wunderground v.1.15,2013-02-11 12:35:00,
2013-02-11 07:40:00,19.8,13.8,30.15,N/A,-737280,0.0,-999.0,77,0.00,,,0.51,Wunderground v.1.15,2013-02-11 12:40:00,
2013-02-11 07:45:00,20.0,13.9,30.15,N/A,-737280,0.0,-999.0,77,0.00,,,0.51,Wunderground v.1.15,2013-02-11 12:45:00,
2013-02-11 07:50:00,20.2,14.4,30.15,N/A,-737280,0.0,-999.0,78,0.00,,,0.51,Wunderground v.1.15,2013-02-11 12:50:00,
2013-02-11 07:55:00,20.5,14.7,30.14,N/A,-737280,0.0,-999.0,78,0.00,,,0.51,Wunderground v.1.15,2013-02-11 12:55:00,
2013-02-11 08:00:00,20.7,14.9,30.14,N/A,-737280,0.0,-999.0,78,0.00,,,0.51,Wunderground v.1.15,2013-02-11 13:00:00,
2013-02-11 08:05:00,20.9,15.1,30.13,N/A,-737280,0.0,-999.0,78,0.00,,,0.51,Wunderground v.1.15,2013-02-11 13:05:00,
2013-02-11 08:10:00,21.1,15.3,30.13,N/A,-737280,0.0,-999.0,78,0.00,,,0.51,Wunderground v.1.15,2013-02-11 13:10:00,
2013-02-11 08:15:00,21.3,15.5,30.13,NNW,338,0.0,-999.0,78,0.00,,,0.51,Wunderground v.1.15,2013-02-11 13:15:00,
2013-02-11 08:20:00,21.4,15.6,30.14,NNW,338,0.0,-999.0,78,0.00,,,0.51,Wunderground v.1.15,2013-02-11 13:20:00,
2013-02-11 08:25:00,21.5,15.7,30.14,NNW,338,0.0,-999.0,78,0.00,,,0.51,Wunderground v.1.15,2013-02-11 13:25:00,
2013-02-11 08:30:00,21.7,15.9,30.14,NNW,338,1.0,-999.0,78,0.00,,,0.51,Wunderground v.1.15,2013-02-11 13:30:00,
2013-02-11 08:35:00,21.8,16.3,30.14,NNW,338,0.0,-999.0,79,0.00,,,0.51,Wunderground v.1.15,2013-02-11 13:35:00,
2013-02-11 08:40:00,22.0,16.5,30.13,NNW,338,0.0,-999.0,79,0.00,,,0.51,Wunderground v.1.15,2013-02-11 13:40:00,
2013-02-11 08:45:00,22.2,16.7,30.12,NNW,338,0.0,-999.0,79,0.00,,,0.51,Wunderground v.1.15,2013-02-11 13:45:00,
2013-02-11 08:50:00,22.4,16.9,30.12,NNW,338,0.0,-999.0,79,0.00,,,0.51,Wunderground v.1.15,2013-02-11 13:50:00,
2013-02-11 08:55:00,22.5,17.0,30.12,N/A,-737280,0.0,-999.0,79,0.00,,,0.51,Wunderground v.1.15,2013-02-11 13:55:00,
2013-02-11 09:00:00,22.7,17.2,30.12,NNW,338,0.0,-999.0,79,0.00,,,0.51,Wunderground v.1.15,2013-02-11 14:00:00,
2013-02-11 09:05:00,22.9,17.4,30.12,NNW,338,1.0,-999.0,79,0.00,,,0.51,Wunderground v.1.15,2013-02-11 14:05:00,
2013-02-11 09:10:00,22.9,17.4,30.13,NNW,338,1.0,-999.0,79,0.00,,,0.51,Wunderground v.1.15,2013-02-11 14:10:00,
2013-02-11 09:15:00,22.9,17.7,30.12,NNW,338,1.0,-999.0,80,0.00,,,0.51,Wunderground v.1.15,2013-02-11 14:15:00,
2013-02-11 09:20:00,23.0,17.7,30.11,N/A,-737280,0.0,-999.0,80,0.00,,,0.51,Wunderground v.1.15,2013-02-11 14:20:00,
2013-02-11 09:25:00,23.1,18.1,30.11,N/A,-737280,0.0,-999.0,81,0.00,,,0.51,Wunderground v.1.15,2013-02-11 14:25:00,
2013-02-11 09:30:00,23.3,18.3,30.11,N/A,-737280,0.0,-999.0,81,0.00,,,0.51,Wunderground v.1.15,2013-02-11 14:30:00,
2013-02-11 09:35:00,23.4,18.4,30.11,N/A,-737280,0.0,-999.0,81,0.00,,,0.51,Wunderground v.1.15,2013-02-11 14:35:00,
2013-02-11 09:40:00,23.5,18.5,30.10,NNW,338,0.0,-999.0,81,0.00,,,0.51,Wunderground v.1.15,2013-02-11 14:40:00,
2013-02-11 09:45:00,23.6,18.9,30.09,NNW,338,0.0,-999.0,82,0.00,,,0.51,Wunderground v.1.15,2013-02-11 14:45:00,
2013-02-11 09:50:00,23.9,19.2,30.09,NNW,338,0.0,-999.0,82,0.00,,,0.51,Wunderground v.1.15,2013-02-11 14:50:00,
2013-02-11 09:55:00,24.2,19.8,30.08,NNW,338,0.0,-999.0,83,0.00,,,0.51,Wunderground v.1.15,2013-02-11 14:55:00,
2013-02-11 10:00:00,24.4,20.0,30.07,N/A,-737280,0.0,-999.0,83,0.00,,,0.51,Wunderground v.1.15,2013-02-11 15:00:00,
2013-02-11 10:05:00,24.8,20.4,30.08,NNW,338,0.0,-999.0,83,0.00,,,0.51,Wunderground v.1.15,2013-02-11 15:05:00,
2013-02-11 10:10:00,24.9,20.5,30.08,NNW,338,0.0,-999.0,83,0.00,,,0.51,Wunderground v.1.15,2013-02-11 15:10:00,
2013-02-11 10:15:00,25.1,20.7,30.07,NNW,338,0.0,-999.0,83,0.00,,,0.51,Wunderground v.1.15,2013-02-11 15:15:00,
2013-02-11 10:20:00,25.2,20.8,30.07,NNW,338,0.0,-999.0,83,0.00,,,0.51,Wunderground v.1.15,2013-02-11 15:20:00,
2013-02-11 10:25:00,25.2,20.5,30.07,NNW,338,0.0,-999.0,82,0.00,,,0.51,Wunderground v.1.15,2013-02-11 15:25:00,
2013-02-11 10:30:00,25.2,20.5,30.07,NNW,338,0.0,-999.0,82,0.00,,,0.51,Wunderground v.1.15,2013-02-11 15:30:00,
2013-02-11 10:35:00,25.3,20.9,30.06,NNW,338,0.0,-999.0,83,0.00,,,0.51,Wunderground v.1.15,2013-02-11 15:35:00,
2013-02-11 10:40:00,25.4,21.0,30.05,NNW,338,0.0,-999.0,83,0.00,,,0.51,Wunderground v.1.15,2013-02-11 15:40:00,
2013-02-11 10:45:00,25.6,21.2,30.05,NNW,338,0.0,-999.0,83,0.00,,,0.51,Wunderground v.1.15,2013-02-11 15:45:00,
2013-02-11 10:50:00,25.8,21.3,30.04,NNW,338,1.0,-999.0,83,0.00,,,0.51,Wunderground v.1.15,2013-02-11 15:50:00,
2013-02-11 10:55:00,26.0,21.5,30.05,NNW,338,2.0,-999.0,83,0.00,,,0.51,Wunderground v.1.15,2013-02-11 15:55:00,
2013-02-11 11:00:00,25.6,20.9,30.05,NNW,338,5.0,-999.0,82,0.00,,,0.51,Wunderground v.1.15,2013-02-11 16:00:00,
2013-02-11 11:05:00,25.5,21.3,30.04,NNW,338,0.0,-999.0,84,0.00,,,0.51,Wunderground v.1.15,2013-02-11 16:05:00,
2013-02-11 11:10:00,25.6,21.7,30.03,NNW,338,0.0,-999.0,85,0.00,,,0.51,Wunderground v.1.15,2013-02-11 16:10:00,
2013-02-11 11:15:00,25.7,21.8,30.03,N/A,-737280,0.0,-999.0,85,0.00,,,0.51,Wunderground v.1.15,2013-02-11 16:15:00,
2013-02-11 11:20:00,25.9,22.3,30.01,NNW,338,0.0,-999.0,86,0.00,,,0.51,Wunderground v.1.15,2013-02-11 16:20:00,
2013-02-11 11:25:00,25.9,22.3,30.01,NNW,338,1.0,-999.0,86,0.00,,,0.51,Wunderground v.1.15,2013-02-11 16:25:00,
2013-02-11 11:30:00,26.0,22.7,30.00,NNW,338,0.0,-999.0,87,0.00,,,0.51,Wunderground v.1.15,2013-02-11 16:30:00,
2013-02-11 11:35:00,25.9,22.6,30.00,NNW,338,0.0,-999.0,87,0.00,,,0.51,Wunderground v.1.15,2013-02-11 16:35:00,
2013-02-11 11:40:00,25.9,22.8,29.99,NNW,338,1.0,-999.0,88,0.00,,,0.51,Wunderground v.1.15,2013-02-11 16:40:00,
2013-02-11 11:45:00,25.9,22.8,29.99,N/A,-737280,0.0,-999.0,88,0.00,,,0.51,Wunderground v.1.15,2013-02-11 16:45:00,
2013-02-11 11:50:00,26.0,22.9,29.98,NNW,338,0.0,-999.0,88,0.00,,,0.51,Wunderground v.1.15,2013-02-11 16:50:00,
2013-02-11 11:55:00,26.0,23.2,29.98,NNW,338,0.0,-999.0,89,0.00,,,0.51,Wunderground v.1.15,2013-02-11 16:55:00,
2013-02-11 12:00:00,26.0,23.2,29.98,NNW,338,1.0,-999.0,89,0.00,,,0.51,Wunderground v.1.15,2013-02-11 17:00:00,
2013-02-11 12:05:00,26.0,23.2,29.98,NNW,338,0.0,-999.0,89,0.00,,,0.51,Wunderground v.1.15,2013-02-11 17:05:00,
2013-02-11 12:10:00,26.0,23.5,29.97,N/A,-737280,0.0,-999.0,90,0.00,,,0.51,Wunderground v.1.15,2013-02-11 17:10:00,
2013-02-11 12:15:00,26.1,23.6,29.96,NNW,338,0.0,-999.0,90,0.00,,,0.51,Wunderground v.1.15,2013-02-11 17:15:00,
2013-02-11 12:20:00,26.3,24.0,29.96,N/A,-737280,0.0,-999.0,91,0.00,,,0.51,Wunderground v.1.15,2013-02-11 17:20:00,
2013-02-11 12:25:00,26.5,24.2,29.95,NNW,338,0.0,-999.0,91,0.00,,,0.51,Wunderground v.1.15,2013-02-11 17:25:00,
2013-02-11 12:30:00,26.7,24.4,29.94,NNW,338,1.0,-999.0,91,0.00,,,0.51,Wunderground v.1.15,2013-02-11 17:30:00,
2013-02-11 12:35:00,27.0,24.7,29.94,NNW,338,2.0,-999.0,91,0.00,,,0.51,Wunderground v.1.15,2013-02-11 17:35:00,
2013-02-11 12:40:00,27.5,25.5,29.93,NNW,338,1.0,-999.0,92,0.00,,,0.51,Wunderground v.1.15,2013-02-11 17:40:00,
2013-02-11 12:45:00,28.1,26.3,29.92,NNW,338,1.0,-999.0,93,0.00,,,0.51,Wunderground v.1.15,2013-02-11 17:45:00,
2013-02-11 12:50:00,29.2,27.7,29.92,SSE,158,1.0,-999.0,94,0.00,,,0.51,Wunderground v.1.15,2013-02-11 17:50:00,
2013-02-11 12:55:00,31.2,30.2,29.91,South,180,2.0,-999.0,96,0.00,,,0.51,Wunderground v.1.15,2013-02-11 17:55:00,
2013-02-11 13:00:00,32.9,31.9,29.90,South,180,4.0,-999.0,96,0.00,,,0.51,Wunderground v.1.15,2013-02-11 18:00:00,
2013-02-11 13:05:00,34.3,33.3,29.89,South,180,4.0,-999.0,96,0.00,,,0.51,Wunderground v.1.15,2013-02-11 18:05:00,
2013-02-11 13:10:00,35.0,33.7,29.89,South,180,4.0,-999.0,95,0.00,,,0.51,Wunderground v.1.15,2013-02-11 18:10:00,
2013-02-11 13:15:00,35.5,34.2,29.88,South,180,5.0,-999.0,95,0.00,,,0.51,Wunderground v.1.15,2013-02-11 18:15:00,
2013-02-11 13:20:00,36.0,34.7,29.87,South,180,4.0,-999.0,95,0.00,,,0.51,Wunderground v.1.15,2013-02-11 18:20:00,
2013-02-11 13:25:00,36.2,34.9,29.87,South,180,4.0,-999.0,95,0.00,,,0.51,Wunderground v.1.15,2013-02-11 18:25:00,
2013-02-11 13:30:00,36.5,35.2,29.87,SW,225,4.0,-999.0,95,0.01,,,0.51,Wunderground v.1.15,2013-02-11 18:30:00,
2013-02-11 13:35:00,36.7,35.4,29.86,South,180,3.0,-999.0,95,0.02,,,0.51,Wunderground v.1.15,2013-02-11 18:35:00,
2013-02-11 13:40:00,36.8,35.5,29.85,South,180,3.0,-999.0,95,0.04,,,0.51,Wunderground v.1.15,2013-02-11 18:40:00,
2013-02-11 13:45:00,37.0,35.7,29.84,South,180,2.0,-999.0,95,0.05,,,0.51,Wunderground v.1.15,2013-02-11 18:45:00,
2013-02-11 13:50:00,37.2,35.9,29.83,SE,135,3.0,-999.0,95,0.06,,,0.51,Wunderground v.1.15,2013-02-11 18:50:00,
2013-02-11 13:55:00,37.4,36.1,29.83,East,90,3.0,-999.0,95,0.07,,,0.51,Wunderground v.1.15,2013-02-11 18:55:00,
2013-02-11 14:00:00,37.7,36.4,29.82,South,180,3.0,-999.0,95,0.09,,,0.51,Wunderground v.1.15,2013-02-11 19:00:00,
2013-02-11 14:05:00,38.0,36.7,29.81,South,180,3.0,-999.0,95,0.11,,,0.51,Wunderground v.1.15,2013-02-11 19:05:00,
2013-02-11 14:10:00,38.2,36.9,29.81,SSE,158,3.0,-999.0,95,0.13,,,0.51,Wunderground v.1.15,2013-02-11 19:10:00,
2013-02-11 14:15:00,38.4,37.1,29.79,East,90,2.0,-999.0,95,0.15,,,0.51,Wunderground v.1.15,2013-02-11 19:15:00,
2013-02-11 14:20:00,38.4,37.1,29.79,ENE,68,2.0,-999.0,95,0.16,,,0.51,Wunderground v.1.15,2013-02-11 19:20:00,
2013-02-11 14:25:00,38.6,37.3,29.78,NE,45,2.0,-999.0,95,0.18,,,0.51,Wunderground v.1.15,2013-02-11 19:25:00,
2013-02-11 14:30:00,38.7,37.4,29.78,SSE,158,3.0,-999.0,95,0.19,,,0.51,Wunderground v.1.15,2013-02-11 19:30:00,
2013-02-11 14:35:00,38.8,37.8,29.78,SSE,158,2.0,-999.0,96,0.19,,,0.51,Wunderground v.1.15,2013-02-11 19:35:00,
2013-02-11 14:40:00,38.9,37.9,29.78,SSE,158,3.0,-999.0,96,0.19,,,0.51,Wunderground v.1.15,2013-02-11 19:40:00,
2013-02-11 14:45:00,39.1,38.1,29.78,South,180,2.0,-999.0,96,0.19,,,0.51,Wunderground v.1.15,2013-02-11 19:45:00,
2013-02-11 14:50:00,39.2,38.2,29.78,SSW,203,2.0,-999.0,96,0.20,,,0.51,Wunderground v.1.15,2013-02-11 19:50:00,
2013-02-11 14:55:00,39.3,38.3,29.77,SSE,158,4.0,-999.0,96,0.20,,,0.51,Wunderground v.1.15,2013-02-11 19:55:00,
2013-02-11 15:00:00,39.4,38.4,29.77,SE,135,3.0,-999.0,96,0.20,,,0.51,Wunderground v.1.15,2013-02-11 20:00:00,
2013-02-11 15:05:00,39.5,38.5,29.76,South,180,3.0,-999.0,96,0.20,,,0.51,Wunderground v.1.15,2013-02-11 20:05:00,
2013-02-11 15:10:00,39.5,38.5,29.76,SSE,158,3.0,-999.0,96,0.19,,,0.51,Wunderground v.1.15,2013-02-11 20:10:00,
2013-02-11 15:15:00,39.5,38.5,29.75,SE,135,3.0,-999.0,96,0.18,,,0.51,Wunderground v.1.15,2013-02-11 20:15:00,
2013-02-11 15:20:00,39.6,38.6,29.75,South,180,2.0,-999.0,96,0.18,,,0.51,Wunderground v.1.15,2013-02-11 20:20:00,
2013-02-11 15:25:00,39.5,38.5,29.75,SSE,158,1.0,-999.0,96,0.17,,,0.51,Wunderground v.1.15,2013-02-11 20:25:00,
2013-02-11 15:30:00,39.7,38.7,29.75,South,180,3.0,-999.0,96,0.18,,,0.51,Wunderground v.1.15,2013-02-11 20:30:00,
2013-02-11 15:35:00,39.9,38.9,29.74,South,180,2.0,-999.0,96,0.20,,,0.51,Wunderground v.1.15,2013-02-11 20:35:00,
2013-02-11 15:40:00,39.8,38.8,29.74,South,180,2.0,-999.0,96,0.20,,,0.51,Wunderground v.1.15,2013-02-11 20:40:00,
2013-02-11 15:45:00,39.8,38.8,29.74,SE,135,2.0,-999.0,96,0.19,,,0.51,Wunderground v.1.15,2013-02-11 20:45:00,
2013-02-11 15:50:00,39.8,38.8,29.73,SE,135,2.0,-999.0,96,0.19,,,0.51,Wunderground v.1.15,2013-02-11 20:50:00,
2013-02-11 15:55:00,40.1,39.3,29.73,SE,135,1.0,-999.0,97,0.19,,,0.51,Wunderground v.1.15,2013-02-11 20:55:00,
2013-02-11 16:00:00,40.3,39.5,29.72,SSW,203,2.0,-999.0,97,0.17,,,0.51,Wunderground v.1.15,2013-02-11 21:00:00,
2013-02-11 16:05:00,40.8,40.0,29.72,SSW,203,2.0,-999.0,97,0.17,,,0.51,Wunderground v.1.15,2013-02-11 21:05:00,
2013-02-11 16:10:00,41.1,40.3,29.71,SW,225,3.0,-999.0,97,0.16,,,0.51,Wunderground v.1.15,2013-02-11 21:10:00,
2013-02-11 16:15:00,41.2,40.4,29.70,West,270,2.0,-999.0,97,0.16,,,0.51,Wunderground v.1.15,2013-02-11 21:15:00,
2013-02-11 16:20:00,41.1,40.3,29.70,South,180,3.0,-999.0,97,0.15,,,0.51,Wunderground v.1.15,2013-02-11 21:20:00,
2013-02-11 16:25:00,41.0,40.2,29.69,SSW,203,2.0,-999.0,97,0.15,,,0.51,Wunderground v.1.15,2013-02-11 21:25:00,
2013-02-11 16:30:00,40.7,39.6,29.67,South,180,3.0,-999.0,96,0.12,,,0.51,Wunderground v.1.15,2013-02-11 21:30:00,
2013-02-11 16:35:00,40.5,39.7,29.68,South,180,3.0,-999.0,97,0.09,,,0.51,Wunderground v.1.15,2013-02-11 21:35:00,
2013-02-11 16:40:00,40.2,39.2,29.68,SSW,203,3.0,-999.0,96,0.07,,,0.51,Wunderground v.1.15,2013-02-11 21:40:00,
2013-02-11 16:45:00,40.0,39.2,29.68,WSW,248,2.0,-999.0,97,0.07,,,0.51,Wunderground v.1.15,2013-02-11 21:45:00,
2013-02-11 16:50:00,39.9,39.1,29.67,SW,225,3.0,-999.0,97,0.05,,,0.51,Wunderground v.1.15,2013-02-11 21:50:00,
2013-02-11 16:55:00,39.8,39.0,29.67,SW,225,3.0,-999.0,97,0.04,,,0.51,Wunderground v.1.15,2013-02-11 21:55:00,
2013-02-11 17:00:00,39.6,38.8,29.66,SW,225,2.0,-999.0,97,0.04,,,0.51,Wunderground v.1.15,2013-02-11 22:00:00,
2013-02-11 17:05:00,39.4,38.6,29.66,SSW,203,3.0,-999.0,97,0.02,,,0.51,Wunderground v.1.15,2013-02-11 22:05:00,
2013-02-11 17:10:00,39.2,38.4,29.66,SSW,203,3.0,-999.0,97,0.02,,,0.51,Wunderground v.1.15,2013-02-11 22:10:00,
2013-02-11 17:15:00,39.1,38.3,29.66,SSW,203,4.0,-999.0,97,0.01,,,0.51,Wunderground v.1.15,2013-02-11 22:15:00,
2013-02-11 17:20:00,39.0,38.2,29.66,SSW,203,3.0,-999.0,97,0.01,,,0.51,Wunderground v.1.15,2013-02-11 22:20:00,
2013-02-11 17:25:00,38.9,38.1,29.66,SW,225,3.0,-999.0,97,0.00,,,0.51,Wunderground v.1.15,2013-02-11 22:25:00,
2013-02-11 17:30:00,38.8,38.0,29.65,SW,225,3.0,-999.0,97,0.00,,,0.51,Wunderground v.1.15,2013-02-11 22:30:00,
2013-02-11 17:35:00,38.7,37.9,29.65,SW,225,1.0,-999.0,97,0.00,,,0.51,Wunderground v.1.15,2013-02-11 22:35:00,
2013-02-11 17:40:00,38.6,37.8,29.65,SW,225,2.0,-999.0,97,0.00,,,0.51,Wunderground v.1.15,2013-02-11 22:40:00,
2013-02-11 17:45:00,38.4,37.6,29.65,SW,225,2.0,-999.0,97,0.00,,,0.51,Wunderground v.1.15,2013-02-11 22:45:00,
2013-02-11 17:50:00,38.3,37.5,29.65,SW,225,2.0,-999.0,97,0.00,,,0.51,Wunderground v.1.15,2013-02-11 22:50:00,
2013-02-11 17:55:00,38.3,37.5,29.65,SW,225,2.0,-999.0,97,0.00,,,0.51,Wunderground v.1.15,2013-02-11 22:55:00,
2013-02-11 18:00:00,38.2,37.4,29.64,SW,225,2.0,-999.0,97,0.00,,,0.51,Wunderground v.1.15,2013-02-11 23:00:00,
2013-02-11 18:05:00,38.1,37.3,29.64,SW,225,2.0,-999.0,97,0.00,,,0.51,Wunderground v.1.15,2013-02-11 23:05:00,
2013-02-11 18:10:00,36.7,35.4,29.65,WSW,248,4.0,-999.0,95,0.01,,,0.51,Wunderground v.1.15,2013-02-11 23:10:00,
2013-02-11 18:15:00,35.3,34.0,29.64,WSW,248,2.0,-999.0,95,0.01,,,0.51,Wunderground v.1.15,2013-02-11 23:15:00,
2013-02-11 18:20:00,34.2,32.9,29.64,WSW,248,3.0,-999.0,95,0.01,,,0.51,Wunderground v.1.15,2013-02-11 23:20:00,
2013-02-11 18:25:00,33.3,32.3,29.64,WSW,248,3.0,-999.0,96,0.01,,,0.51,Wunderground v.1.15,2013-02-11 23:25:00,
2013-02-11 18:30:00,33.0,32.0,29.64,WSW,248,2.0,-999.0,96,0.01,,,0.51,Wunderground v.1.15,2013-02-11 23:30:00,
2013-02-11 18:35:00,32.8,32.0,29.65,WSW,248,4.0,-999.0,97,0.01,,,0.51,Wunderground v.1.15,2013-02-11 23:35:00,
2013-02-11 18:40:00,32.6,31.8,29.64,WSW,248,3.0,-999.0,97,0.01,,,0.51,Wunderground v.1.15,2013-02-11 23:40:00,
2013-02-11 18:45:00,32.6,31.8,29.64,WSW,248,0.0,-999.0,97,0.01,,,0.51,Wunderground v.1.15,2013-02-11 23:45:00,
2013-02-11 18:50:00,32.6,31.8,29.63,WSW,248,0.0,-999.0,97,0.01,,,0.51,Wunderground v.1.15,2013-02-11 23:50:00,
2013-02-11 18:55:00,32.7,31.9,29.63,WSW,248,0.0,-999.0,97,0.01,,,0.51,Wunderground v.1.15,2013-02-11 23:55:00,
2013-02-11 19:00:00,32.9,32.1,29.63,WSW,248,0.0,-999.0,97,0.01,,,0.51,Wunderground v.1.15,2013-02-12 00:00:00,
2013-02-11 19:05:00,33.0,32.2,29.63,WSW,248,0.0,-999.0,97,0.01,,,0.51,Wunderground v.1.15,2013-02-12 00:05:00,
2013-02-11 19:10:00,33.0,32.2,29.63,WSW,248,1.0,-999.0,97,0.00,,,0.51,Wunderground v.1.15,2013-02-12 00:10:00,
2013-02-11 19:15:00,32.9,32.1,29.62,WSW,248,3.0,-999.0,97,0.00,,,0.51,Wunderground v.1.15,2013-02-12 00:15:00,
2013-02-11 19:20:00,32.8,32.0,29.62,WSW,248,2.0,-999.0,97,0.00,,,0.51,Wunderground v.1.15,2013-02-12 00:20:00,
2013-02-11 19:25:00,32.7,31.9,29.62,WSW,248,0.0,-999.0,97,0.00,,,0.51,Wunderground v.1.15,2013-02-12 00:25:00,
2013-02-11 19:30:00,32.7,31.9,29.61,N/A,-737280,0.0,-999.0,97,0.00,,,0.51,Wunderground v.1.15,2013-02-12 00:30:00,
2013-02-11 19:35:00,32.6,31.8,29.61,WSW,248,1.0,-999.0,97,0.00,,,0.51,Wunderground v.1.15,2013-02-12 00:35:00,
2013-02-11 19:40:00,32.5,31.7,29.61,WSW,248,1.0,-999.0,97,0.00,,,0.51,Wunderground v.1.15,2013-02-12 00:40:00,
2013-02-11 19:45:00,32.4,31.6,29.61,WSW,248,2.0,-999.0,97,0.00,,,0.51,Wunderground v.1.15,2013-02-12 00:45:00,
2013-02-11 19:50:00,32.4,31.6,29.61,WSW,248,2.0,-999.0,97,0.00,,,0.51,Wunderground v.1.15,2013-02-12 00:50:00,
2013-02-11 19:55:00,32.3,31.5,29.61,WSW,248,1.0,-999.0,97,0.00,,,0.51,Wunderground v.1.15,2013-02-12 00:55:00,
2013-02-11 20:00:00,32.2,31.4,29.60,WSW,248,4.0,-999.0,97,0.00,,,0.51,Wunderground v.1.15,2013-02-12 01:00:00,
2013-02-11 20:05:00,32.1,31.3,29.60,WSW,248,4.0,-999.0,97,0.00,,,0.51,Wunderground v.1.15,2013-02-12 01:05:00,
2013-02-11 20:10:00,32.1,31.3,29.58,WSW,248,2.0,-999.0,97,0.00,,,0.51,Wunderground v.1.15,2013-02-12 01:10:00,
2013-02-11 20:15:00,32.1,31.3,29.58,WSW,248,1.0,-999.0,97,0.00,,,0.51,Wunderground v.1.15,2013-02-12 01:15:00,
2013-02-11 20:20:00,32.0,31.2,29.59,WSW,248,3.0,-999.0,97,0.00,,,0.51,Wunderground v.1.15,2013-02-12 01:20:00,
2013-02-11 20:25:00,31.9,31.1,29.59,WSW,248,3.0,-999.0,97,0.00,,,0.51,Wunderground v.1.15,2013-02-12 01:25:00,
2013-02-11 20:30:00,31.9,31.1,29.58,WSW,248,4.0,-999.0,97,0.00,,,0.51,Wunderground v.1.15,2013-02-12 01:30:00,
2013-02-11 20:35:00,31.8,31.0,29.58,WSW,248,4.0,-999.0,97,0.00,,,0.51,Wunderground v.1.15,2013-02-12 01:35:00,
2013-02-11 20:40:00,31.8,31.0,29.58,WSW,248,4.0,-999.0,97,0.00,,,0.51,Wunderground v.1.15,2013-02-12 01:40:00,
2013-02-11 20:45:00,31.6,30.8,29.57,WNW,293,4.0,-999.0,97,0.00,,,0.51,Wunderground v.1.15,2013-02-12 01:45:00,
2013-02-11 20:50:00,31.6,30.8,29.57,WNW,293,4.0,-999.0,97,0.00,,,0.51,Wunderground v.1.15,2013-02-12 01:50:00,
2013-02-11 20:55:00,31.5,30.7,29.57,WNW,293,3.0,-999.0,97,0.00,,,0.51,Wunderground v.1.15,2013-02-12 01:55:00,
2013-02-11 21:00:00,31.5,30.7,29.57,WNW,293,2.0,-999.0,97,0.00,,,0.51,Wunderground v.1.15,2013-02-12 02:00:00,
2013-02-11 21:05:00,31.6,31.1,29.58,WNW,293,3.0,-999.0,98,0.00,,,0.51,Wunderground v.1.15,2013-02-12 02:05:00,
2013-02-11 21:10:00,31.6,31.1,29.58,WNW,293,2.0,-999.0,98,0.00,,,0.51,Wunderground v.1.15,2013-02-12 02:10:00,
2013-02-11 21:15:00,31.6,31.1,29.58,WNW,293,2.0,-999.0,98,0.00,,,0.51,Wunderground v.1.15,2013-02-12 02:15:00,
2013-02-11 21:20:00,31.6,31.1,29.57,WNW,293,2.0,-999.0,98,0.00,,,0.51,Wunderground v.1.15,2013-02-12 02:20:00,
2013-02-11 21:25:00,31.7,31.2,29.57,WNW,293,3.0,-999.0,98,0.00,,,0.51,Wunderground v.1.15,2013-02-12 02:25:00,
2013-02-11 21:30:00,31.7,31.2,29.56,WNW,293,3.0,-999.0,98,0.00,,,0.51,Wunderground v.1.15,2013-02-12 02:30:00,
2013-02-11 21:35:00,31.7,31.2,29.56,WNW,293,4.0,-999.0,98,0.00,,,0.51,Wunderground v.1.15,2013-02-12 02:35:00,
2013-02-11 21:40:00,31.7,31.2,29.56,WNW,293,3.0,-999.0,98,0.00,,,0.51,Wunderground v.1.15,2013-02-12 02:40:00,
2013-02-11 21:45:00,31.8,31.3,29.55,WNW,293,4.0,-999.0,98,0.00,,,0.51,Wunderground v.1.15,2013-02-12 02:45:00,
2013-02-11 21:50:00,31.8,31.3,29.56,WNW,293,5.0,-999.0,98,0.00,,,0.51,Wunderground v.1.15,2013-02-12 02:50:00,
2013-02-11 21:55:00,31.8,31.3,29.57,NW,315,8.0,-999.0,98,0.00,,,0.51,Wunderground v.1.15,2013-02-12 02:55:00,
2013-02-11 22:00:00,31.7,31.2,29.57,NW,315,7.0,-999.0,98,0.00,,,0.51,Wunderground v.1.15,2013-02-12 03:00:00,
2013-02-11 22:05:00,31.7,31.2,29.56,NW,315,6.0,-999.0,98,0.00,,,0.51,Wunderground v.1.15,2013-02-12 03:05:00,
2013-02-11 22:10:00,31.7,31.2,29.56,NW,315,7.0,-999.0,98,0.00,,,0.51,Wunderground v.1.15,2013-02-12 03:10:00,
2013-02-11 22:15:00,31.7,31.2,29.56,NW,315,6.0,-999.0,98,0.00,,,0.51,Wunderground v.1.15,2013-02-12 03:15:00,
2013-02-11 22:20:00,31.6,31.1,29.56,NW,315,6.0,-999.0,98,0.00,,,0.51,Wunderground v.1.15,2013-02-12 03:20:00,
2013-02-11 22:25:00,31.5,31.0,29.56,NW,315,6.0,-999.0,98,0.00,,,0.51,Wunderground v.1.15,2013-02-12 03:25:00,
2013-02-11 22:30:00,31.4,30.9,29.56,NW,315,6.0,-999.0,98,0.00,,,0.51,Wunderground v.1.15,2013-02-12 03:30:00,
2013-02-11 22:35:00,31.4,30.6,29.54,NW,315,4.0,-999.0,97,0.00,,,0.51,Wunderground v.1.15,2013-02-12 03:35:00,
2013-02-11 22:40:00,31.4,30.6,29.55,NW,315,2.0,-999.0,97,0.00,,,0.51,Wunderground v.1.15,2013-02-12 03:40:00,
2013-02-11 22:45:00,31.4,30.6,29.54,NW,315,1.0,-999.0,97,0.00,,,0.51,Wunderground v.1.15,2013-02-12 03:45:00,
2013-02-11 22:50:00,31.4,30.9,29.55,NW,315,3.0,-999.0,98,0.00,,,0.51,Wunderground v.1.15,2013-02-12 03:50:00,
2013-02-11 22:55:00,31.5,30.7,29.54,NW,315,1.0,-999.0,97,0.00,,,0.51,Wunderground v.1.15,2013-02-12 03:55:00,
2013-02-11 23:00:00,31.5,31.0,29.54,NW,315,2.0,-999.0,98,0.00,,,0.51,Wunderground v.1.15,2013-02-12 04:00:00,
2013-02-11 23:05:00,31.5,31.0,29.53,NW,315,1.0,-999.0,98,0.00,,,0.51,Wunderground v.1.15,2013-02-12 04:05:00,
2013-02-11 23:10:00,31.4,30.9,29.54,NW,315,2.0,-999.0,98,0.00,,,0.51,Wunderground v.1.15,2013-02-12 04:10:00,
2013-02-11 23:15:00,31.4,30.6,29.53,NW,315,1.0,-999.0,97,0.00,,,0.51,Wunderground v.1.15,2013-02-12 04:15:00,
2013-02-11 23:20:00,31.4,30.6,29.52,NW,315,0.0,-999.0,97,0.00,,,0.51,Wunderground v.1.15,2013-02-12 04:20:00,
2013-02-11 23:25:00,31.4,30.6,29.52,NW,315,1.0,-999.0,97,0.00,,,0.51,Wunderground v.1.15,2013-02-12 04:25:00,
2013-02-11 23:30:00,31.3,30.5,29.53,NW,315,1.0,-999.0,97,0.00,,,0.51,Wunderground v.1.15,2013-02-12 04:30:00,
2013-02-11 23:35:00,31.3,30.5,29.53,NW,315,1.0,-999.0,97,0.00,,,0.51,Wunderground v.1.15,2013-02-12 04:35:00,
2013-02-11 23:40:00,31.3,30.8,29.53,NW,315,5.0,-999.0,98,0.00,,,0.51,Wunderground v.1.15,2013-02-12 04:40:00,
2013-02-11 23:45:00,31.3,30.8,29.53,NW,315,5.0,-999.0,98,0.00,,,0.51,Wunderground v.1.15,2013-02-12 04:45:00,
2013-02-11 23:50:00,31.3,30.8,29.53,NW,315,3.0,-999.0,98,0.00,,,0.51,Wunderground v.1.15,2013-02-12 04:50:00,
2013-02-11 23:55:00,31.2,30.7,29.52,NW,315,2.0,-999.0,98,0.00,,,0.51,Wunderground v.1.15,2013-02-12 04:55:00,